Moab, UT

6:44 PM MDT on May 22, 2017 (GMT -0600)
Canyonlands

Weather History for KCNY - May, 2014

Change the Weather History Date:

Saturday, May 10, 2014

  Actual Average Record
Temperature  
Mean Temperature 58 °F 60 °F  
Max Temperature 69 °F 76 °F 94 °F (1987)
Min Temperature 46 °F 45 °F 30 °F (1930)
Degree Days  
Heating Degree Days 7 6  
Month to date heating degree days 61 68  
Since 1 July heating degree days 5723 5493  
Cooling Degree Days 0 1  
Month to date cooling degree days 13 8  
Year to date cooling degree days 16 11  
Growing Degree Days 7 (Base 50)    
Moisture  
Dew Point 32 °F    
Average Humidity 56    
Maximum Humidity 89    
Minimum Humidity 22    
Precipitation  
Precipitation 0.28 in 0.02 in 0.51 in (1979)
Month to date precipitation 0.28 0.22  
Year to date precipitation 1.22 2.84  
Sea Level Pressure  
Sea Level Pressure 29.64 in    
Wind  
Wind Speed 8 mph (WSW)    
Max Wind Speed 33 mph    
Max Gust Speed 43 mph    
Visibility 10 miles    
Events Rain    
T = Trace of Precipitation, MM = Missing Value Source: NWS Daily Summary

Daily Weather History Graph

Daily Weather History Graph

Search for Another Location

Airport or City:

Trip Planner

Search our weather history database for the weather conditions in past years. The results will help you decide how hot, cold, wet, or windy it might be!

Date:

Astronomy

May. 10, 2014 Rise Set
Actual Time 6:11 AM MDT 8:19 PM MDT
Civil Twilight 5:42 AM MDT 8:49 PM MDT
Nautical Twilight 5:05 AM MDT 9:25 PM MDT
Astronomical Twilight 4:26 AM MDT 10:05 PM MDT
Moon 4:21 PM MDT (5/10) 3:43 AM MDT (5/10)
Length of Visible Light 15h 07m
Length of Day
14h 08m
Waxing Gibbous, 82% of the Moon is Illuminated
May 10
Waxing Gibbous
May 14
Full
May 21
Last Quarter
May 28
New
Jun 5
First Quarter

Hourly Weather History & Observations

Time (MDT) Temp. Dew Point Humidity Pressure Visibility Wind Dir Wind Speed Gust Speed Precip Events Conditions
12:53 AM 60.1 °F 30.0 °F 32% 29.73 in 10.0 mi Calm Calm - N/A   Overcast
1:53 AM 57.0 °F 30.0 °F 36% 29.72 in 10.0 mi SW 3.5 mph - N/A   Scattered Clouds
2:53 AM 51.1 °F 28.0 °F 41% 29.72 in 10.0 mi SSW 3.5 mph - N/A   Clear
3:53 AM 52.0 °F 28.9 °F 41% 29.73 in 10.0 mi Calm Calm - N/A   Clear
4:53 AM 48.2 °F 28.4 °F 46% 29.84 in 10.0 mi Calm Calm - N/A   Clear
5:53 AM 46.9 °F 27.0 °F 46% 29.73 in 10.0 mi Calm Calm - N/A   Clear
6:53 AM 46.9 °F 28.0 °F 48% 29.73 in 10.0 mi Calm Calm - N/A   Partly Cloudy
7:53 AM 55.9 °F 30.9 °F 39% 29.71 in 10.0 mi Calm Calm - N/A   Partly Cloudy
8:53 AM 59.0 °F 32.0 °F 36% 29.70 in 10.0 mi Calm Calm - N/A   Clear
9:53 AM 61.0 °F 30.9 °F 32% 29.70 in 10.0 mi Variable 3.5 mph - N/A   Scattered Clouds
10:53 AM 60.1 °F 30.9 °F 33% 29.71 in 10.0 mi SE 8.1 mph - N/A   Overcast
11:53 AM 64.9 °F 27.0 °F 24% 29.66 in 10.0 mi SW 17.3 mph 21.9 mph N/A   Mostly Cloudy
12:53 PM 66.0 °F 26.1 °F 22% 29.64 in 10.0 mi SW 27.6 mph 36.8 mph N/A   Mostly Cloudy
1:53 PM 66.9 °F 28.9 °F 24% 29.62 in 10.0 mi South 15.0 mph - N/A   Mostly Cloudy
2:53 PM 66.9 °F 28.0 °F 23% 29.61 in 10.0 mi WSW 4.6 mph - N/A   Mostly Cloudy
3:53 PM 68.0 °F 28.0 °F 22% 29.57 in 10.0 mi Calm Calm - N/A   Overcast
4:53 PM 68.0 °F 28.9 °F 23% 29.52 in 10.0 mi Calm Calm - N/A   Mostly Cloudy
5:53 PM 68.0 °F 28.9 °F 23% 29.49 in 10.0 mi NW 6.9 mph - N/A   Mostly Cloudy
6:53 PM 63.0 °F 36.0 °F 37% 29.49 in 10.0 mi NNW 18.4 mph - N/A   Overcast
7:53 PM 62.1 °F 35.1 °F 37% 29.46 in 10.0 mi North 13.8 mph - 0.00 in   Mostly Cloudy
8:53 PM 53.6 °F 46.4 °F 77% 29.63 in 9.0 mi NW 19.6 mph 26.5 mph N/A Rain Light Rain
9:53 PM 52.0 °F 48.0 °F 86% 29.55 in 5.0 mi North 10.4 mph - 0.12 in Rain Rain
10:53 PM 51.1 °F 46.9 °F 86% 29.54 in 10.0 mi ENE 11.5 mph - 0.05 in Rain Light Rain
11:53 PM 50.0 °F 46.4 °F 87% 29.64 in 10.0 mi SE 8.1 mph - N/A Rain Light Rain